Hourly Weather Ceglarnia

Today, 25 June, Friday

Time Temperature Precipitation Wind Pressure Humidity
00:00 +16°C° 0 mm 1 mps 749 mmHg 97%
01:00 +15°C° 0 mm 1 mps 749 mmHg 97%
02:00 +15°C° 0 mm 2 mps 748 mmHg 97%
03:00 +15°C° 0 mm 2 mps 748 mmHg 97%
04:00 +14°C° 0 mm 3 mps 748 mmHg 97%
05:00 +16°C° 0 mm 3 mps 748 mmHg 91%
06:00 +17°C° 0 mm 4 mps 749 mmHg 85%
07:00 +18°C° 0 mm 4 mps 749 mmHg 79%
08:00 +19°C° 0 mm 3 mps 749 mmHg 72%
09:00 +20°C° 0 mm 3 mps 749 mmHg 65%
10:00 +22°C° 0 mm 3 mps 749 mmHg 57%
11:00 +22°C° 0.1 mm 3 mps 749 mmHg 58%
12:00 +23°C° 0.1 mm 2 mps 749 mmHg 59%
13:00 +23°C° 0.1 mm 2 mps 749 mmHg 60%
14:00 +21°C° 0.2 mm 2 mps 749 mmHg 66%
15:00 +20°C° 0.2 mm 3 mps 749 mmHg 73%
16:00 +19°C° 0.2 mm 3 mps 749 mmHg 79%
17:00 +18°C° 0 mm 2 mps 749 mmHg 80%
18:00 +18°C° 0 mm 2 mps 749 mmHg 82%
19:00 +18°C° 0 mm 2 mps 749 mmHg 83%
20:00 +17°C° 0 mm 2 mps 749 mmHg 86%
21:00 +16°C° 0 mm 2 mps 750 mmHg 90%
22:00 +15°C° 0 mm 2 mps 750 mmHg 94%
23:00 +14°C° 0 mm 2 mps 750 mmHg 95%

Tomorrow, 26 June, Saturday

Time Temperature Precipitation Wind Pressure Humidity
00:00 +14°C° 0 mm 2 mps 750 mmHg 96%
01:00 +13°C° 0 mm 2 mps 750 mmHg 97%
02:00 +13°C° 0 mm 2 mps 750 mmHg 97%
03:00 +13°C° 0 mm 2 mps 750 mmHg 97%
04:00 +13°C° 0 mm 2 mps 750 mmHg 97%
05:00 +14°C° 0 mm 3 mps 750 mmHg 90%
06:00 +16°C° 0 mm 3 mps 750 mmHg 83%
07:00 +18°C° 0 mm 3 mps 751 mmHg 77%
08:00 +19°C° 0 mm 3 mps 751 mmHg 68%
09:00 +21°C° 0 mm 4 mps 751 mmHg 59%
10:00 +22°C° 0 mm 4 mps 751 mmHg 51%
11:00 +22°C° 0 mm 4 mps 751 mmHg 49%
12:00 +23°C° 0 mm 4 mps 751 mmHg 47%
13:00 +23°C° 0 mm 4 mps 751 mmHg 45%
14:00 +23°C° 0 mm 4 mps 751 mmHg 46%
15:00 +23°C° 0 mm 4 mps 750 mmHg 47%
16:00 +22°C° 0 mm 4 mps 750 mmHg 49%
17:00 +21°C° 0 mm 3 mps 751 mmHg 54%
18:00 +20°C° 0 mm 3 mps 751 mmHg 59%
19:00 +19°C° 0 mm 3 mps 751 mmHg 65%
20:00 +17°C° 0 mm 2 mps 751 mmHg 73%
21:00 +16°C° 0 mm 2 mps 751 mmHg 82%
22:00 +14°C° 0 mm 1 mps 751 mmHg 90%
23:00 +13°C° 0 mm 1 mps 751 mmHg 91%

Day after tomorrow, 27 June, Sunday

Time Temperature Precipitation Wind Pressure Humidity
00:00 +13°C° 0 mm 1 mps 751 mmHg 92%
01:00 +13°C° 0 mm 1 mps 751 mmHg 93%
02:00 +13°C° 0 mm 1 mps 751 mmHg 93%
03:00 +12°C° 0 mm 1 mps 751 mmHg 92%
04:00 +12°C° 0 mm 1 mps 751 mmHg 92%
05:00 +14°C° 0 mm 2 mps 751 mmHg 83%
06:00 +16°C° 0 mm 2 mps 751 mmHg 74%
07:00 +18°C° 0 mm 2 mps 751 mmHg 65%
08:00 +20°C° 0 mm 2 mps 751 mmHg 60%
09:00 +21°C° 0 mm 2 mps 751 mmHg 54%
10:00 +24°C° 0 mm 2 mps 751 mmHg 49%
11:00 +25°C° 0 mm 3 mps 751 mmHg 45%
12:00 +25°C° 0 mm 3 mps 751 mmHg 42%
13:00 +26°C° 0 mm 3 mps 750 mmHg 39%
14:00 +26°C° 0 mm 3 mps 750 mmHg 42%
15:00 +25°C° 0 mm 3 mps 750 mmHg 46%
16:00 +25°C° 0 mm 3 mps 750 mmHg 49%
17:00 +24°C° 0 mm 3 mps 750 mmHg 54%
18:00 +23°C° 0 mm 2 mps 750 mmHg 60%
19:00 +21°C° 0 mm 2 mps 750 mmHg 65%
20:00 +20°C° 0 mm 1 mps 750 mmHg 72%
21:00 +18°C° 0 mm 1 mps 751 mmHg 79%
22:00 +16°C° 0 mm 1 mps 751 mmHg 86%
23:00 +15°C° 0 mm 1 mps 751 mmHg 86%

28 June, Monday

Time Temperature Precipitation Wind Pressure Humidity
00:00 +15°C° 0 mm 1 mps 751 mmHg 87%
01:00 +13°C° 0 mm 0 mps 751 mmHg 88%
02:00 +14°C° 0 mm 1 mps 751 mmHg 87%
03:00 +14°C° 0 mm 1 mps 751 mmHg 86%
04:00 +15°C° 0 mm 1 mps 750 mmHg 85%
05:00 +18°C° 0 mm 1 mps 750 mmHg 77%
06:00 +20°C° 0 mm 1 mps 751 mmHg 68%
07:00 +21°C° 0 mm 1 mps 751 mmHg 60%
08:00 +23°C° 0 mm 2 mps 751 mmHg 55%
09:00 +25°C° 0 mm 2 mps 751 mmHg 49%
10:00 +26°C° 0 mm 2 mps 751 mmHg 43%
11:00 +27°C° 0 mm 2 mps 751 mmHg 41%
12:00 +28°C° 0 mm 2 mps 750 mmHg 39%
13:00 +29°C° 0 mm 2 mps 750 mmHg 36%
14:00 +28°C° 0 mm 2 mps 750 mmHg 37%
15:00 +28°C° 0 mm 3 mps 750 mmHg 38%
16:00 +28°C° 0 mm 3 mps 750 mmHg 38%
17:00 +27°C° 0 mm 2 mps 750 mmHg 47%
18:00 +25°C° 0 mm 2 mps 750 mmHg 55%
19:00 +23°C° 0 mm 2 mps 749 mmHg 63%
20:00 +21°C° 0 mm 2 mps 749 mmHg 69%
21:00 +19°C° 0 mm 2 mps 749 mmHg 75%
22:00 +18°C° 0 mm 2 mps 749 mmHg 81%
23:00 +19°C° 0 mm 1 mps 749 mmHg 81%

29 June, Tuesday

Time Temperature Precipitation Wind Pressure Humidity
00:00 +18°C° 0 mm 1 mps 749 mmHg 82%
01:00 +18°C° 0 mm 1 mps 749 mmHg 83%
02:00 +18°C° 0 mm 1 mps 748 mmHg 83%
03:00 +18°C° 0 mm 1 mps 748 mmHg 83%
04:00 +18°C° 0 mm 1 mps 748 mmHg 83%
05:00 +19°C° 0 mm 2 mps 748 mmHg 74%
06:00 +23°C° 0 mm 2 mps 748 mmHg 65%
07:00 +25°C° 0 mm 2 mps 748 mmHg 56%
08:00 +26°C° 0 mm 3 mps 748 mmHg 51%
09:00 +28°C° 0 mm 3 mps 747 mmHg 45%
10:00 +29°C° 0 mm 3 mps 747 mmHg 40%
11:00 +29°C° 0 mm 3 mps 747 mmHg 40%
12:00 +30°C° 0 mm 3 mps 747 mmHg 41%
13:00 +30°C° 0 mm 3 mps 746 mmHg 41%
14:00 +29°C° 0.1 mm 3 mps 746 mmHg 47%
15:00 +28°C° 0.1 mm 2 mps 746 mmHg 52%
16:00 +27°C° 0.1 mm 2 mps 746 mmHg 58%
17:00 +26°C° 0.1 mm 2 mps 746 mmHg 62%
18:00 +26°C° 0.1 mm 1 mps 746 mmHg 66%
19:00 +25°C° 0.1 mm 1 mps 745 mmHg 70%
20:00 +24°C° 0 mm 1 mps 745 mmHg 72%
21:00 +23°C° 0 mm 1 mps 745 mmHg 75%
22:00 +22°C° 0 mm 1 mps 745 mmHg 77%
23:00 +19°C° 0.4 mm 2 mps 746 mmHg 81%

30 June, Wednesday

Time Temperature Precipitation Wind Pressure Humidity
00:00 +18°C° 0.4 mm 2 mps 746 mmHg 84%
01:00 +17°C° 0.4 mm 2 mps 746 mmHg 88%
02:00 +17°C° 0.2 mm 2 mps 745 mmHg 88%
03:00 +17°C° 0.2 mm 2 mps 745 mmHg 87%
04:00 +18°C° 0.2 mm 1 mps 745 mmHg 86%
05:00 +18°C° 0 mm 2 mps 745 mmHg 79%
06:00 +19°C° 0 mm 2 mps 745 mmHg 72%
07:00 +20°C° 0 mm 3 mps 745 mmHg 65%
08:00 +21°C° 0 mm 3 mps 745 mmHg 59%
09:00 +24°C° 0 mm 3 mps 745 mmHg 53%
10:00 +25°C° 0 mm 4 mps 746 mmHg 46%
11:00 +26°C° 0 mm 4 mps 746 mmHg 46%
12:00 +26°C° 0 mm 4 mps 746 mmHg 46%
13:00 +27°C° 0 mm 4 mps 746 mmHg 45%
14:00 +26°C° 0 mm 5 mps 746 mmHg 48%
15:00 +25°C° 0 mm 5 mps 746 mmHg 51%
16:00 +23°C° 0 mm 5 mps 746 mmHg 54%
17:00 +22°C° 0 mm 4 mps 746 mmHg 56%
18:00 +21°C° 0 mm 4 mps 747 mmHg 58%
19:00 +19°C° 0 mm 3 mps 747 mmHg 60%
20:00 +18°C° 0 mm 3 mps 747 mmHg 70%
21:00 +16°C° 0 mm 2 mps 747 mmHg 80%
22:00 +14°C° 0 mm 2 mps 748 mmHg 90%
23:00 +14°C° 0 mm 2 mps 748 mmHg 91%
Show more

We Need Your Consent

Meteoprog and our Service Providers may store and access personal data such as cookies, device identifiers or other similar technologies on your device and process such data to personalise content and ads, as well as provide social media features and to analyse the traffic.

  • Store and/or access information on your device

    Cookies, device identifiers or other information can be stored or accessed on your device for the purposes indicated above.

  • Personalised ads and content, ad and content measurement, audience insights, and products development

    Ads and content can be personalised based on a profile. More data can be added to better personalise ads and content. Ad and content performance can be measured. Insights about the audience who saw the ads and content can be derived. Such data can be used to develop or improve user’s experience, systems and software.

By clicking ‘I Agree’ you will allow the use of indicated cookies, device identifiers, web beacons or other similar technologies. Your settings can be changed in the browser on your device.

For certain purposes, legitimate interests may be relied on, rather than consent. You can read more about this in our Privacy and Cookie Policy.